Weather History for KMMH - June, 2013

Change the Weather History Date:

Tuesday, June 11, 2013

  Actual Average (KBIH) Record (KBIH)
Temperature  
Mean Temperature 66 °F 70 °F  
Max Temperature 77 °F 91 °F 102 °F (1949)
Min Temperature 55 °F 50 °F 36 °F (1976)
Degree Days  
Heating Degree Days 0 1  
Month to date heating degree days 14  
Since 1 June heating degree days 14  
Since 1 July heating degree days 4172  
Cooling Degree Days 1 6  
Month to date cooling degree days 57  
Year to date cooling degree days 125  
Since 1 June cooling degree days 57  
Growing Degree Days 16 (Base 50)    
Moisture  
Dew Point 27 °F    
Average Humidity 22    
Maximum Humidity 44    
Minimum Humidity 13    
Precipitation  
Precipitation 0.00 in 0.00 in 0.25 in (1963)
Month to date precipitation 0.08  
Year to date precipitation 2.96  
Snow  
Snow 0.00 in 0.00 in - ()
Month to date snowfall 0.0  
Since 1 June snowfall 0.0  
Since 1 July snowfall 8.0  
Snow Depth -    
Sea Level Pressure  
Sea Level Pressure 30.19 in    
Wind  
Wind Speed 12 mph (SW)    
Max Wind Speed 26 mph    
Max Gust Speed 34 mph    
Visibility 10 miles    
Events      
T = Trace of Precipitation, MM = Missing Value Source: NWS Daily Summary

Daily Weather History Graph

Daily Weather History Graph

Search for Another Location

Airport or City:

Trip Planner

Search our weather history database for the weather conditions in past years. The results will help you decide how hot, cold, wet, or windy it might be!

Date:

Astronomy

Jun. 11, 2013 Rise Set
Actual Time 5:33 AM PDT 8:17 PM PDT
Civil Twilight 5:02 AM PDT 8:48 PM PDT
Nautical Twilight 4:23 AM PDT 9:27 PM PDT
Astronomical Twilight 3:39 AM PDT 10:10 PM PDT
Moon 8:18 AM PDT (6/11) 10:25 PM PDT (6/11)
Length of Visible Light 15h 45m
Length of Day
14h 43m
Waxing Crescent, 9% of the Moon is Illuminated
Jun 11
Waxing Crescent
Jun 16
First Quarter
Jun 23
Full
Jun 29
Last Quarter
Jul 8
New

Hourly Weather History & Observations

Time (PDT) Temp. Dew Point Humidity Pressure Visibility Wind Dir Wind Speed Gust Speed Precip Events Conditions
12:15 AM 57.2 °F 35.6 °F 44% 30.13 in 10.0 mi Calm Calm - N/A   Clear
10:35 AM 71.6 °F 17.6 °F 13% 30.19 in 10.0 mi South 17.3 mph 31.1 mph N/A   Clear
10:55 AM 71.6 °F 19.4 °F 14% 30.19 in 10.0 mi South 12.7 mph 28.8 mph N/A   Clear
11:15 AM 73.4 °F 21.2 °F 14% 30.20 in 10.0 mi SW 13.8 mph 28.8 mph N/A   Clear
11:35 AM 73.4 °F 23.0 °F 15% 30.20 in 10.0 mi South 17.3 mph 28.8 mph N/A   Clear
11:55 AM 75.2 °F 23.0 °F 14% 30.20 in 10.0 mi SSW 20.7 mph 32.2 mph N/A   Scattered Clouds
12:15 PM 75.2 °F 23.0 °F 14% 30.20 in 10.0 mi SSW 17.3 mph 27.6 mph N/A   Scattered Clouds
12:35 PM 75.2 °F 24.8 °F 15% 30.20 in 10.0 mi SSW 26.5 mph 31.1 mph N/A   Scattered Clouds
12:55 PM 75.2 °F 24.8 °F 15% 30.20 in 10.0 mi SSW 13.8 mph 29.9 mph N/A   Scattered Clouds
1:15 PM 77.0 °F 24.8 °F 14% 30.19 in 10.0 mi South 11.5 mph 27.6 mph N/A   Scattered Clouds
1:35 PM 75.2 °F 24.8 °F 15% 30.19 in 10.0 mi SSW 21.9 mph 33.4 mph N/A   Scattered Clouds
1:55 PM 77.0 °F 24.8 °F 14% 30.20 in 10.0 mi SW 9.2 mph 29.9 mph N/A   Scattered Clouds
2:15 PM 75.2 °F 26.6 °F 17% 30.19 in 10.0 mi SSW 11.5 mph 28.8 mph N/A   Mostly Cloudy
2:35 PM 75.2 °F 26.6 °F 17% 30.19 in 10.0 mi WSW 15.0 mph 34.5 mph N/A   Mostly Cloudy
2:55 PM 75.2 °F 24.8 °F 15% 30.19 in 10.0 mi SW 11.5 mph 28.8 mph N/A   Mostly Cloudy
3:15 PM 75.2 °F 24.8 °F 15% 30.18 in 10.0 mi SE 12.7 mph 29.9 mph N/A   Mostly Cloudy
3:35 PM 75.2 °F 24.8 °F 15% 30.17 in 10.0 mi West 11.5 mph 32.2 mph N/A   Mostly Cloudy
3:55 PM 75.2 °F 26.6 °F 17% 30.18 in 10.0 mi SSW 16.1 mph 27.6 mph N/A   Mostly Cloudy
4:15 PM 73.4 °F 26.6 °F 18% 30.17 in 10.0 mi South 10.4 mph 29.9 mph N/A   Mostly Cloudy
4:35 PM 75.2 °F 26.6 °F 17% 30.17 in 10.0 mi SSW 21.9 mph 28.8 mph N/A   Mostly Cloudy
4:55 PM 75.2 °F 28.4 °F 18% 30.17 in 10.0 mi SSW 11.5 mph 27.6 mph N/A   Scattered Clouds
5:15 PM 73.4 °F 28.4 °F 19% 30.17 in 10.0 mi SW 9.2 mph 23.0 mph N/A   Mostly Cloudy
5:35 PM 75.2 °F 28.4 °F 18% 30.17 in 10.0 mi SSW 16.1 mph 28.8 mph N/A   Scattered Clouds
5:55 PM 73.4 °F 30.2 °F 20% 30.16 in 10.0 mi WNW 11.5 mph 24.2 mph N/A   Scattered Clouds
6:15 PM 71.6 °F 28.4 °F 20% 30.17 in 10.0 mi South 5.8 mph - N/A   Scattered Clouds
6:35 PM 71.6 °F 30.2 °F 22% 30.17 in 10.0 mi WSW 13.8 mph 23.0 mph N/A   Scattered Clouds
6:55 PM 71.6 °F 30.2 °F 22% 30.18 in 10.0 mi West 13.8 mph 23.0 mph N/A   Scattered Clouds
7:15 PM 69.8 °F 32.0 °F 25% 30.18 in 10.0 mi West 6.9 mph 28.8 mph N/A   Scattered Clouds
7:35 PM 68.0 °F 32.0 °F 26% 30.18 in 10.0 mi NNW 8.1 mph 26.5 mph N/A   Scattered Clouds
7:55 PM 66.2 °F 30.2 °F 26% 30.18 in 10.0 mi WSW 9.2 mph 29.9 mph N/A   Scattered Clouds
8:15 PM 66.2 °F 30.2 °F 26% 30.18 in 10.0 mi SW 18.4 mph 24.2 mph N/A   Clear
8:35 PM 66.2 °F 30.2 °F 26% 30.19 in 10.0 mi NW 8.1 mph - N/A   Clear
8:55 PM 62.6 °F 30.2 °F 30% 30.19 in 10.0 mi South 10.4 mph 21.9 mph N/A   Clear
9:15 PM 60.8 °F 32.0 °F 34% 30.20 in 10.0 mi West 8.1 mph 20.7 mph N/A   Clear
9:35 PM 60.8 °F 32.0 °F 34% 30.21 in 10.0 mi NW 3.5 mph - N/A   Clear
9:55 PM 60.8 °F 28.4 °F 29% 30.22 in 10.0 mi West 10.4 mph 16.1 mph N/A   Clear
10:15 PM 59.0 °F 32.0 °F 36% 30.22 in 10.0 mi WNW 6.9 mph - N/A   Clear
10:35 PM 57.2 °F 32.0 °F 38% 30.21 in 10.0 mi North 5.8 mph - N/A   Clear
10:55 PM 55.4 °F 32.0 °F 41% 30.21 in 10.0 mi Calm Calm - N/A   Clear
11:15 PM 59.0 °F 30.2 °F 34% 30.21 in 10.0 mi NW 8.1 mph 11.5 mph N/A   Clear
11:35 PM 62.6 °F 23.0 °F 22% 30.20 in 10.0 mi West 6.9 mph 24.2 mph N/A   Clear
11:55 PM 57.2 °F 26.6 °F 31% 30.20 in 10.0 mi SW 5.8 mph 19.6 mph N/A   Clear